Tracking 29892 objects as of 21-Nov-2024
HD Live streaming from Space Station
objects crossing your sky now

STARLINK-6281

Track STARLINK-6281 now!
10-day predictions
STARLINK-6281 is classified as:


NORAD ID: 56410
Int'l Code: 2023-061AN
Perigee: 565.6 km
Apogee: 566.9 km
Inclination: 43.0 °
Period: 95.8 minutes
Semi major axis: 6937 km
RCS: Unknown
Launch date: May 4, 2023
Source: United States (US)
Launch site: AIR FORCE EASTERN TEST RANGE (AFETR)
Your satellite tracking list
Your tracking list is empty




NASA's NSSDC Master Catalog

Two Line Element Set (TLE):
1 56410U 23061AN  24326.08471117  .00000229  00000-0  32006-4 0  9992
2 56410  43.0027 237.7784 0000959 277.8348  82.2385 15.02533452 85959
Source of the keplerian elements: AFSPC